Location: Boursonne
(49.2024°N, 3.0468°E)
Time: 14:51:25
(UTC+00:00)

Daily predictions for brighter satellites

Satellite Brightness Start Highest point End
(mag) Time Altitude Azimuth Time Altitude Azimuth Time Altitude Azimuth
Cosmos 2184 Rocket 4.0 17:57:14 10° S 18:03:16 60° E 18:09:21 10° NNE
CZ-2C R/B 3.5 18:02:51 10° NE 18:07:30 27° E 18:12:02 10° SSE
CZ-4 R/B 1.3 18:05:12 10° SSE 18:09:01 65° ENE 18:12:56 10° N
H-2A R/B 2.2 18:03:43 10° SSE 18:09:07 68° ENE 18:14:33 10° N
USA 305 3.5 18:05:56 10° W 18:10:07 51° NNW 18:14:18 10° ENE
Gbstr 26 Del rocket 3.3 18:08:32 10° WSW 18:12:50 78° NNW 18:18:07 10° ENE
IRS-1C Rocket 4.1 18:07:39 10° SSE 18:12:55 87° ENE 18:18:15 10° NNW
SL-4 R/B 1.9 18:11:48 10° WNW 18:15:22 57° N 18:18:38 11° E
Meteor 1-20 Rocket 4.1 18:10:00 10° S 18:15:24 70° E 18:20:53 10° NNE
Cosmos 1302 Rocket 4.0 18:10:28 10° SSW 18:15:40 89° ESE 18:20:56 10° NNE
CSL-04 DEB 4.4 18:14:23 10° NNE 18:18:21 87° WNW 18:22:22 10° SSW
USA 307 3.6 18:17:15 10° W 18:21:26 49° NNW 18:25:36 10° ENE
FALCON 9 DEB 3.1 18:19:42 10° WNW 18:23:09 75° NNE 18:26:13 12° ESE
ATLAS CENTAUR R/B 2.3 18:21:19 10° S 18:24:12 23° ESE 18:26:57 11° ENE
USA 306 3.6 18:20:43 10° W 18:24:52 47° N 18:28:56 10° ENE
USA 186 3.2 18:25:07 13° ENE 18:25:07 13° ENE 18:26:14 10° NE
Cosmos 1354 Rocket 4.2 18:20:15 10° NNW 18:25:25 52° ENE 18:30:31 10° SE
Cosmos 44 Rocket 3.7 18:21:30 10° NW 18:26:46 77° SW 18:31:57 10° SSE
FALCON 9 DEB 3.8 18:24:13 10° WNW 18:27:14 39° N 18:29:48 13° ENE
ERS-2 2.4 18:24:05 10° NNE 18:27:37 44° E 18:31:07 10° S
Okean-O 2.6 18:24:26 10° SSE 18:28:52 87° ENE 18:33:20 10° NNW
Cosmos 1844 Rocket 2.8 18:23:35 10° NNW 18:29:05 55° ENE 18:34:32 10° SE
FALCON 9 DEB 3.9 18:26:08 10° WNW 18:29:10 40° N 18:31:45 13° ENE
Cosmos 2084 Rocket 3.5 18:24:54 10° NW 18:29:13 88° WSW 18:33:43 10° SE
SAR-Lupe-1 4.4 18:26:17 10° NNE 18:29:45 44° E 18:33:13 10° S
CSL-04 Rocket 3.8 18:24:51 10° SSE 18:30:18 60° ENE 18:35:43 10° N
CSL-04 Debris 4.2 18:26:15 10° SSE 18:31:37 65° ENE 18:37:04 10° N
USA 308 3.6 18:27:55 10° W 18:32:04 47° N 18:35:51 12° ENE
Cosmos 1271 Rocket 4.2 18:29:54 10° NNW 18:33:26 40° W 18:36:57 10° SSW
Cosmos 1666 3.9 18:31:38 10° SE 18:34:24 20° E 18:37:12 10° NE
Cosmos 1503 Rocket 3.9 18:30:28 10° NNW 18:35:41 71° ENE 18:40:50 10° SSE
H-2A R/B 4.2 18:32:50 10° N 18:36:21 28° WNW 18:39:52 10° WSW
HJ-1C 3.2 18:33:27 10° SSE 18:36:46 75° ENE 18:40:05 10° N
Cosmos 2341 Rocket 4.4 18:32:34 10° SSE 18:38:23 41° E 18:44:12 10° NNE
PSLV R/B 3.8 18:34:37 10° NNE 18:38:45 77° ESE 18:42:48 10° S
Cosmos 1844 3.9 18:35:10 10° NNW 18:40:53 57° NE 18:46:31 10° SE
Cosmos 1470 Rocket 3.5 18:37:50 10° S 18:42:16 69° E 18:46:43 10° NNE
CZ-4B R/B 3.0 18:39:54 10° N 18:42:43 34° WNW 18:45:31 10° SW
Cosmos 2360 Rocket 2.4 18:39:20 10° S 18:44:43 48° ESE 18:50:09 10° NE
Ariane Rocket 3.8 18:42:04 13° ESE 18:45:49 31° ENE 18:50:15 10° N
Cosmos 1602 4.0 18:42:03 10° SSW 18:45:56 71° W 18:49:52 10° N
Cosmos 2278 Rocket 3.6 18:41:41 10° N 18:45:58 21° NE 18:48:36 16° ENE
Cosmos 1500 3.0 18:49:17 10° S 18:52:58 66° E 18:56:42 10° NNE
Meteor 2-4 Rocket 3.8 18:47:16 10° N 18:53:07 74° ENE 18:59:02 10° SSE
Cosmos 1703 Rocket 3.6 18:49:03 10° N 18:53:23 54° ENE 18:57:40 10° SSE
DMSP B5D1-3 4.5 18:48:38 10° NNE 18:53:50 84° ESE 18:59:00 10° SSW
Cosmos 2333 Rocket 3.0 18:50:23 10° SSE 18:55:02 27° ESE 18:59:44 10° NE
Cosmos 1689 Rocket 2.2 18:53:17 10° N 18:56:09 70° WNW 18:59:01 10° SSW
Cosmos 2218 Rocket 4.5 18:51:13 10° SSE 18:57:01 38° E 19:02:49 10° NNE
SL-08 RB Rocket 3.6 18:52:56 10° SSE 18:57:27 89° E 19:02:03 10° NNW
Meteor 2-12 Rocket 4.4 18:52:25 10° S 18:58:29 84° E 19:04:38 10° N
ERBS 3.4 18:56:58 10° W 19:00:06 38° NNW 19:02:19 17° NE
Cosmos 1980 Rocket 4.2 18:56:27 10° WSW 19:01:14 27° NW 19:06:02 10° NNE
Cosmos 1933 Rocket 3.4 18:58:51 10° S 19:03:11 75° E 19:07:35 10° NNE
Aureole 2 Rocket 3.4 19:01:51 10° NW 19:04:11 33° WSW 19:06:28 10° S
Cosmos 1943 Rocket 4.4 19:03:32 10° NNE 19:04:22 10° NNE 19:05:10 10° NNE
Cosmos 2242 Rocket 3.6 19:06:56 10° N 19:11:28 88° W 19:15:56 10° S
Resurs 01 Rocket 2.9 19:12:41 23° ENE 19:12:41 23° ENE 19:15:54 10° N
Cosmos 2322 Rocket 2.6 19:09:06 10° SW 19:14:40 66° WNW 19:20:18 10° NNE
Abrixas rocket 1.7 19:13:53 10° W 19:16:07 65° WSW 19:16:07 65° WSW
Lacrosse 4 Rocket 3.2 19:13:03 10° SSE 19:14:29 18° SSE 19:14:29 18° SSE
SME Rocket 4.3 19:09:39 10° NNE 19:17:47 51° E 19:23:07 10° S
Helios 1A Rocket 4.2 19:16:04 10° S 19:19:55 42° W 19:23:47 10° NNW
FALCON 9 DEB 3.6 19:17:20 10° WNW 19:20:23 42° N 19:20:47 40° NNE
SJ-6B 2.8 19:22:30 26° SSE 19:24:42 73° ENE 19:28:45 10° N
COSMOS 2428 3.3 19:19:58 10° SSE 19:32:12 - NE 19:24:51 33° ESE
ASTEX 1 3.5 19:22:08 10° NNE 19:26:55 51° E 19:30:11 19° SSE
Meteor 1-23 Rocket 4.5 19:23:30 10° N 19:28:52 45° ENE 19:30:27 36° ESE
GP-B 3.6 19:24:29 10° S 19:28:53 62° W 19:33:18 10° N
MOS 1 4.2 19:25:33 20° SSE 19:29:36 68° ENE 19:35:15 10° N
Cosmos 2219 Rocket 2.4 19:26:38 10° S 19:31:53 44° ESE 19:37:11 10° NE
Meteor 1-11 Rocket 3.7 19:26:42 10° S 19:32:17 57° E 19:37:46 10° NNE
FALCON 9 DEB 3.6 19:29:46 10° WNW 19:32:42 46° N 19:32:42 46° N
MetOp-A 4.2 19:28:23 10° SSE 19:33:44 79° WSW 19:39:08 10° NNW
OBJECT-B 0.9 19:36:24 64° N 19:36:24 64° N 19:39:12 10° N
Resurs 1-3 3.6 19:38:47 56° E 19:39:11 59° ENE 19:43:32 10° N
SL-16 R/B 3.6 19:34:17 10° WSW 19:39:34 38° NW 19:44:53 10° NNE
SJ 16-02 2.0 19:35:52 10° N 19:39:34 38° NE 19:39:34 38° NE
SeaSat 1 2.8 19:35:30 10° NNE 19:40:24 65° NW 19:45:17 10° SW
Okean 1-7 3.8 19:36:18 10° NNW 19:40:35 53° W 19:44:49 10° S
Cosmos 1066 Rocket 4.1 19:37:08 10° N 19:42:50 73° ENE 19:45:41 31° SSE
Meteor 1-13 Rocket 4.3 19:37:15 10° NNW 19:43:15 84° W 19:48:31 13° S
USA 234 3.2 19:39:54 28° ENE 19:43:34 65° SE 19:50:03 10° SW
CZ-2C R/B 3.5 19:42:44 10° N 19:48:03 51° WNW 19:53:15 10° SW
Cosmos 2369 Rocket 4.4 19:47:54 10° N 19:49:40 11° NNE 19:50:42 11° NE
IRS-1A Rocket 4.2 19:46:43 21° SSE 19:50:35 83° WSW 19:56:11 10° NNW
USA 305 3.5 19:46:29 10° WNW 19:50:37 46° N 19:50:56 45° NNE
BREEZE-M DEB (TANK) 2.4 19:48:06 10° W 19:50:49 90° SSE 19:51:09 74° E
Cosmos 2322 3.6 19:46:07 10° SSW 19:51:49 76° ESE 19:57:33 10° NNE
DMSP B5D2-2 4.4 19:48:45 10° N 19:53:57 65° WNW 19:59:05 10° SSW
SL-4 R/B 2.4 19:51:31 10° WNW 19:54:12 48° W 19:54:12 48° W
USA 186 4.2 19:56:42 16° WNW 19:56:42 16° WNW 19:57:41 10° NW
Cosmos 1869 Rocket 3.7 19:53:09 10° SSW 19:57:29 72° W 20:01:55 10° N
Cosmos 1898 Rocket 4.5 19:53:51 10° N 19:57:51 32° NE 19:57:51 32° NE
SL-8 Rocket 4.2 19:53:48 10° SSW 20:00:01 70° WNW 20:06:14 10° N
Gbstr 26 Del rocket 3.6 19:55:21 10° WNW 20:00:07 69° N 20:00:59 58° ENE
USA 307 3.5 19:57:50 10° WNW 20:01:49 47° N 20:01:49 47° N
ATLAS CENTAUR R/B 2.2 19:59:24 10° WSW 20:02:50 41° NW 20:03:11 39° NNW
Cosmos 1378 4.0 20:01:09 10° NNW 20:03:53 45° NNW 20:03:53 45° NNW
USA 306 3.6 20:01:12 10° WNW 20:05:03 47° N 20:05:03 47° N
Cosmos 1666 4.3 20:06:22 10° SW 20:09:46 33° WNW 20:13:11 10° N
USA 308 3.7 20:08:26 10° WNW 20:11:59 45° NNW 20:11:59 45° NNW
Cosmos 1844 Rocket 4.5 20:07:59 10° NW 20:12:38 28° WSW 20:17:16 10° SSW
Cosmos 2366 rocket 4.3 20:08:48 10° SSW 20:15:04 67° WNW 20:21:26 10° N
SL-08 R/B 4.4 20:11:58 24° S 20:16:04 81° E 20:22:34 10° N
NOSS 3-3 (A) 4.4 20:09:26 10° NW 20:16:50 75° NE 20:18:42 56° ESE
NOSS 3-3 (C) 4.4 20:09:33 10° NW 20:16:56 75° NE 20:18:47 56° ESE
SPOT 3 Rocket 3.4 20:18:38 87° N 20:18:38 87° N 20:23:48 10° NNW
Cosmos 2221 Rocket 4.3 20:19:44 10° NNW 20:23:10 51° NW 20:23:10 51° NW
Ariane Rocket 4.0 20:22:15 26° SSW 20:24:38 43° W 20:29:31 10° NNW
SPOT 1/Viking Rocket 4.4 20:29:56 39° NNE 20:29:56 39° NNE 20:33:21 10° N
Cosmos 2360 Rocket 3.7 20:23:44 10° WSW 20:28:54 35° NW 20:34:06 10° NNE
Cosmos 2278 Rocket 2.2 20:25:11 10° NNW 20:30:28 77° NNW 20:30:28 77° NNW
Cosmos 1727 Rocket 4.5 20:29:13 10° NNW 20:35:15 57° W 20:37:44 35° SSW
Cosmos 2333 Rocket 2.7 20:33:19 10° SW 20:38:56 59° WNW 20:44:38 10° NNE
Cosmos 1821 Rocket 4.0 20:41:55 69° N 20:41:55 69° N 20:47:18 10° N
Resurs 01 Rocket 3.2 20:50:14 33° NW 20:50:14 33° NW 20:52:58 10° NNW
Cosmos 1943 Rocket 3.7 20:45:09 10° NNW 20:48:24 25° NNE 20:48:24 25° NNE
Cosmos 2123 Rocket 4.4 20:55:24 10° N 21:00:10 55° N 21:00:10 55° N
COSMOS 2428 3.9 21:03:37 10° SW 21:14:01 13° NNE 21:14:39 10° NNE
Cosmos 2219 Rocket 3.4 21:10:45 10° WSW 21:15:56 38° NW 21:21:09 10° NNE
Terra 4.3 21:21:50 16° N 21:21:50 16° N 21:22:46 10° N
SJ 16-02 3.9 21:14:48 10° NW 21:16:35 19° WNW 21:16:35 19° WNW
USA 234 3.7 21:27:15 57° NW 21:27:15 57° NW 21:32:59 10° W
USA 281 4.2 21:34:30 39° N 21:34:30 39° N 21:38:40 10° NNW
Cosmos 2369 Rocket 4.2 21:30:20 10° NNW 21:32:29 21° N 21:32:29 21° N
